Time,TemperatureF,DewpointF,PressureIn,WindDirection,WindDirectionDegrees,WindSpeedMPH,WindSpeedGustMPH,Humidity,HourlyPrecipIn,Conditions,Clouds,dailyrainin,SoftwareType,DateUTC
2013-04-18 00:02:00,12.0,8.0,-100.00,NNW,347,2.0,5.0,82,-99.99,,,-99.99,,2013-04-18 06:02:00,
2013-04-18 00:12:00,12.0,8.0,-100.00,NNW,347,2.0,5.0,82,-99.99,,,-99.99,,2013-04-18 06:12:00,
2013-04-18 00:22:00,12.0,8.0,-100.00,NNE,22,2.0,4.0,83,-99.99,,,-99.99,,2013-04-18 06:22:00,
2013-04-18 00:32:00,12.0,8.0,-100.00,NNE,22,2.0,4.0,83,-99.99,,,-99.99,,2013-04-18 06:32:00,
2013-04-18 00:42:00,12.0,8.0,-100.00,NNE,22,2.0,4.0,83,-99.99,,,-99.99,,2013-04-18 06:42:00,
2013-04-18 01:32:00,12.0,8.0,-100.00,North,359,2.0,6.0,82,-99.99,,,-99.99,,2013-04-18 07:32:00,
2013-04-18 01:42:00,12.0,8.0,-100.00,North,359,2.0,6.0,82,-99.99,,,-99.99,,2013-04-18 07:42:00,
2013-04-18 01:52:00,12.0,7.0,-100.00,NNE,20,2.0,4.0,81,-99.99,,,-99.99,,2013-04-18 07:52:00,
2013-04-18 02:02:00,12.0,7.0,-100.00,NNE,17,2.0,5.0,80,-99.99,,,-99.99,,2013-04-18 08:02:00,
2013-04-18 02:12:00,12.0,7.0,-100.00,NNE,17,2.0,5.0,80,-99.99,,,-99.99,,2013-04-18 08:12:00,
2013-04-18 02:22:00,12.0,7.0,-100.00,North,355,2.0,5.0,79,-99.99,,,-99.99,,2013-04-18 08:22:00,
2013-04-18 02:32:00,12.0,6.0,-100.00,North,9,2.0,5.0,75,-99.99,,,-99.99,,2013-04-18 08:32:00,
2013-04-18 02:42:00,12.0,6.0,-100.00,North,9,2.0,5.0,75,-99.99,,,-99.99,,2013-04-18 08:42:00,
2013-04-18 02:52:00,12.0,5.0,-100.00,North,11,2.0,6.0,73,-99.99,,,-99.99,,2013-04-18 08:52:00,
2013-04-18 03:02:00,12.0,5.0,-100.00,North,349,2.0,6.0,72,-99.99,,,-99.99,,2013-04-18 09:02:00,
2013-04-18 03:12:00,12.0,5.0,-100.00,North,349,2.0,6.0,72,-99.99,,,-99.99,,2013-04-18 09:12:00,
2013-04-18 03:22:00,12.0,4.0,-100.00,North,360,2.0,6.0,69,-99.99,,,-99.99,,2013-04-18 09:22:00,
2013-04-18 03:32:00,12.0,3.0,-100.00,NNE,12,3.0,6.0,67,-99.99,,,-99.99,,2013-04-18 09:32:00,
2013-04-18 03:42:00,12.0,3.0,-100.00,NNE,12,3.0,6.0,67,-99.99,,,-99.99,,2013-04-18 09:42:00,
2013-04-18 03:52:00,12.0,3.0,-100.00,NNE,12,2.0,6.0,66,-99.99,,,-99.99,,2013-04-18 09:52:00,
2013-04-18 04:03:00,12.0,3.0,-100.00,North,9,3.0,8.0,65,-99.99,,,-99.99,,2013-04-18 10:03:00,
2013-04-18 04:12:00,12.0,3.0,-100.00,North,9,3.0,8.0,65,-99.99,,,-99.99,,2013-04-18 10:12:00,
2013-04-18 04:23:00,12.0,1.0,-100.00,North,9,3.0,6.0,60,-99.99,,,-99.99,,2013-04-18 10:23:00,
2013-04-18 04:32:00,11.0,0.0,-100.00,NNE,20,2.0,4.0,59,-99.99,,,-99.99,,2013-04-18 10:32:00,
2013-04-18 04:42:00,11.0,0.0,-100.00,NNE,20,2.0,4.0,59,-99.99,,,-99.99,,2013-04-18 10:42:00,
2013-04-18 04:52:00,11.0,0.0,-100.00,NNE,20,2.0,4.0,59,-99.99,,,-99.99,,2013-04-18 10:52:00,
2013-04-18 05:02:00,11.0,0.0,-100.00,NNE,17,3.0,6.0,59,-99.99,,,-99.99,,2013-04-18 11:02:00,
2013-04-18 05:12:00,11.0,0.0,-100.00,NNE,17,3.0,6.0,59,-99.99,,,-99.99,,2013-04-18 11:12:00,
2013-04-18 05:22:00,11.0,-1.0,-100.00,North,9,2.0,7.0,58,-99.99,,,-99.99,,2013-04-18 11:22:00,
2013-04-18 05:32:00,11.0,-2.0,-100.00,NNW,343,2.0,5.0,56,-99.99,,,-99.99,,2013-04-18 11:32:00,
2013-04-18 05:42:00,11.0,-2.0,-100.00,NNW,343,2.0,5.0,56,-99.99,,,-99.99,,2013-04-18 11:42:00,
2013-04-18 05:52:00,11.0,-2.0,-100.00,NE,36,2.0,4.0,56,-99.99,,,-99.99,,2013-04-18 11:52:00,
2013-04-18 06:02:00,11.0,-2.0,-100.00,NNE,25,3.0,6.0,54,-99.99,,,-99.99,,2013-04-18 12:02:00,
2013-04-18 06:12:00,11.0,-2.0,-100.00,NNE,25,3.0,6.0,54,-99.99,,,-99.99,,2013-04-18 12:12:00,
2013-04-18 06:22:00,11.0,-3.0,-100.00,North,8,2.0,6.0,53,-99.99,,,-99.99,,2013-04-18 12:22:00,
2013-04-18 06:32:00,11.0,-3.0,-100.00,NNW,328,2.0,4.0,53,-99.99,,,-99.99,,2013-04-18 12:32:00,
2013-04-18 06:42:00,11.0,-3.0,-100.00,NNW,328,2.0,4.0,53,-99.99,,,-99.99,,2013-04-18 12:42:00,
2013-04-18 06:52:00,10.0,-4.0,-100.00,NNW,339,2.0,3.0,53,-99.99,,,-99.99,,2013-04-18 12:52:00,
2013-04-18 07:02:00,10.0,-4.0,-100.00,NNE,12,3.0,8.0,52,-99.99,,,-99.99,,2013-04-18 13:02:00,
2013-04-18 07:12:00,10.0,-4.0,-100.00,NNE,12,3.0,8.0,52,-99.99,,,-99.99,,2013-04-18 13:12:00,
2013-04-18 07:22:00,11.0,-3.0,-100.00,NNE,25,3.0,7.0,52,-99.99,,,-99.99,,2013-04-18 13:22:00,
2013-04-18 07:32:00,10.0,-4.0,-100.00,North,349,3.0,7.0,52,-99.99,,,-99.99,,2013-04-18 13:32:00,
2013-04-18 07:42:00,10.0,-4.0,-100.00,North,349,3.0,7.0,52,-99.99,,,-99.99,,2013-04-18 13:42:00,
2013-04-18 07:52:00,10.0,-3.0,-100.00,North,360,3.0,9.0,54,-99.99,,,-99.99,,2013-04-18 13:52:00,
2013-04-18 08:02:00,11.0,-2.0,-100.00,North,7,3.0,5.0,56,-99.99,,,-99.99,,2013-04-18 14:02:00,
2013-04-18 08:12:00,11.0,-2.0,-100.00,North,7,3.0,5.0,56,-99.99,,,-99.99,,2013-04-18 14:12:00,
2013-04-18 08:22:00,12.0,-1.0,-100.00,NNW,335,3.0,6.0,56,-99.99,,,-99.99,,2013-04-18 14:22:00,
2013-04-18 08:32:00,12.0,-1.0,-100.00,North,0,3.0,5.0,56,-99.99,,,-99.99,,2013-04-18 14:32:00,
2013-04-18 08:42:00,12.0,-1.0,-100.00,North,0,3.0,5.0,56,-99.99,,,-99.99,,2013-04-18 14:42:00,
2013-04-18 08:52:00,13.0,0.0,-100.00,North,3,4.0,7.0,55,-99.99,,,-99.99,,2013-04-18 14:52:00,
2013-04-18 09:02:00,14.0,0.0,-100.00,North,9,4.0,8.0,53,-99.99,,,-99.99,,2013-04-18 15:02:00,
2013-04-18 09:12:00,14.0,0.0,-100.00,North,9,4.0,8.0,53,-99.99,,,-99.99,,2013-04-18 15:12:00,
2013-04-18 09:22:00,15.0,1.0,-100.00,North,354,3.0,7.0,53,-99.99,,,-99.99,,2013-04-18 15:22:00,
2013-04-18 09:33:00,15.0,2.0,-100.00,North,6,3.0,7.0,55,-99.99,,,-99.99,,2013-04-18 15:33:00,
2013-04-18 09:42:00,15.0,2.0,-100.00,North,6,3.0,7.0,55,-99.99,,,-99.99,,2013-04-18 15:42:00,
2013-04-18 09:52:00,15.0,2.0,-100.00,North,10,3.0,7.0,55,-99.99,,,-99.99,,2013-04-18 15:52:00,
2013-04-18 10:03:00,16.0,3.0,-100.00,NNE,12,3.0,8.0,56,-99.99,,,-99.99,,2013-04-18 16:03:00,
2013-04-18 10:13:00,16.0,3.0,-100.00,NNE,12,3.0,8.0,56,-99.99,,,-99.99,,2013-04-18 16:13:00,
2013-04-18 10:22:00,16.0,3.0,-100.00,NNE,29,4.0,6.0,56,-99.99,,,-99.99,,2013-04-18 16:22:00,
2013-04-18 10:33:00,17.0,4.0,-100.00,NNE,18,4.0,7.0,55,-99.99,,,-99.99,,2013-04-18 16:33:00,
2013-04-18 10:42:00,17.0,4.0,-100.00,NNE,18,4.0,7.0,55,-99.99,,,-99.99,,2013-04-18 16:42:00,
2013-04-18 10:52:00,18.0,4.0,-100.00,North,5,4.0,7.0,53,-99.99,,,-99.99,,2013-04-18 16:52:00,
2013-04-18 11:02:00,18.0,3.0,-100.00,NNE,13,4.0,7.0,51,-99.99,,,-99.99,,2013-04-18 17:02:00,
2013-04-18 11:12:00,18.0,3.0,-100.00,NNE,13,4.0,7.0,51,-99.99,,,-99.99,,2013-04-18 17:12:00,
2013-04-18 11:22:00,19.0,2.0,-100.00,NNE,25,3.0,6.0,47,-99.99,,,-99.99,,2013-04-18 17:22:00,
2013-04-18 11:33:00,20.0,2.0,-100.00,NNE,13,4.0,10.0,45,-99.99,,,-99.99,,2013-04-18 17:33:00,
2013-04-18 11:42:00,20.0,2.0,-100.00,NNE,13,4.0,10.0,45,-99.99,,,-99.99,,2013-04-18 17:42:00,
2013-04-18 11:52:00,21.0,3.0,-100.00,NNE,33,4.0,7.0,45,-99.99,,,-99.99,,2013-04-18 17:52:00,
2013-04-18 12:02:00,21.0,4.0,-100.00,North,1,4.0,9.0,47,-99.99,,,-99.99,,2013-04-18 18:02:00,
2013-04-18 12:12:00,21.0,4.0,-100.00,North,1,4.0,9.0,47,-99.99,,,-99.99,,2013-04-18 18:12:00,
2013-04-18 12:22:00,22.0,4.0,-100.00,North,354,4.0,7.0,46,-99.99,,,-99.99,,2013-04-18 18:22:00,
2013-04-18 12:32:00,23.0,5.0,-100.00,North,8,3.0,10.0,46,-99.99,,,-99.99,,2013-04-18 18:32:00,
2013-04-18 12:42:00,23.0,5.0,-100.00,North,8,3.0,10.0,46,-99.99,,,-99.99,,2013-04-18 18:42:00,
2013-04-18 12:52:00,24.0,5.0,-100.00,North,11,3.0,7.0,43,-99.99,,,-99.99,,2013-04-18 18:52:00,
2013-04-18 13:02:00,24.0,4.0,-100.00,North,353,4.0,10.0,42,-99.99,,,-99.99,,2013-04-18 19:02:00,
2013-04-18 13:12:00,24.0,4.0,-100.00,North,353,4.0,10.0,42,-99.99,,,-99.99,,2013-04-18 19:12:00,
2013-04-18 13:22:00,25.0,5.0,-100.00,North,357,3.0,7.0,41,-99.99,,,-99.99,,2013-04-18 19:22:00,
2013-04-18 13:32:00,25.0,6.0,-100.00,North,359,3.0,10.0,43,-99.99,,,-99.99,,2013-04-18 19:32:00,
2013-04-18 13:42:00,25.0,6.0,-100.00,North,359,3.0,10.0,43,-99.99,,,-99.99,,2013-04-18 19:42:00,
2013-04-18 13:52:00,26.0,8.0,-100.00,North,358,3.0,6.0,46,-99.99,,,-99.99,,2013-04-18 19:52:00,
2013-04-18 14:02:00,26.0,7.0,-100.00,North,9,2.0,5.0,44,-99.99,,,-99.99,,2013-04-18 20:02:00,
2013-04-18 14:12:00,26.0,7.0,-100.00,North,9,2.0,5.0,44,-99.99,,,-99.99,,2013-04-18 20:12:00,
2013-04-18 14:22:00,26.0,8.0,-100.00,NNE,13,3.0,6.0,45,-99.99,,,-99.99,,2013-04-18 20:22:00,
2013-04-18 14:32:00,26.0,8.0,-100.00,NNE,22,3.0,6.0,46,-99.99,,,-99.99,,2013-04-18 20:32:00,
2013-04-18 14:42:00,26.0,8.0,-100.00,NNE,22,3.0,6.0,46,-99.99,,,-99.99,,2013-04-18 20:42:00,
2013-04-18 14:52:00,26.0,8.0,-100.00,NNE,32,2.0,4.0,46,-99.99,,,-99.99,,2013-04-18 20:52:00,
2013-04-18 15:02:00,26.0,9.0,-100.00,North,354,2.0,4.0,47,-99.99,,,-99.99,,2013-04-18 21:02:00,
2013-04-18 15:12:00,26.0,9.0,-100.00,North,354,2.0,4.0,47,-99.99,,,-99.99,,2013-04-18 21:12:00,
2013-04-18 15:22:00,26.0,9.0,-100.00,NNE,27,3.0,7.0,49,-99.99,,,-99.99,,2013-04-18 21:22:00,
2013-04-18 15:32:00,26.0,9.0,-100.00,NNE,27,3.0,7.0,49,-99.99,,,-99.99,,2013-04-18 21:32:00,
2013-04-18 15:43:00,26.0,9.0,-100.00,NNE,27,3.0,7.0,49,-99.99,,,-99.99,,2013-04-18 21:43:00,
2013-04-18 15:53:00,28.0,9.0,-100.00,NNW,344,1.0,4.0,44,-99.99,,,-99.99,,2013-04-18 21:53:00,
2013-04-18 16:02:00,27.0,9.0,-100.00,NE,36,2.0,5.0,45,-99.99,,,-99.99,,2013-04-18 22:02:00,
2013-04-18 16:12:00,27.0,9.0,-100.00,NE,36,2.0,5.0,45,-99.99,,,-99.99,,2013-04-18 22:12:00,
2013-04-18 16:22:00,26.0,9.0,-100.00,NE,44,2.0,4.0,47,-99.99,,,-99.99,,2013-04-18 22:22:00,
2013-04-18 16:32:00,26.0,7.0,-100.00,NNE,32,2.0,5.0,44,-99.99,,,-99.99,,2013-04-18 22:32:00,
2013-04-18 16:42:00,26.0,7.0,-100.00,NNE,32,2.0,5.0,44,-99.99,,,-99.99,,2013-04-18 22:42:00,
2013-04-18 16:52:00,26.0,8.0,-100.00,NNE,20,2.0,5.0,45,-99.99,,,-99.99,,2013-04-18 22:52:00,
2013-04-18 17:03:00,27.0,9.0,-100.00,ENE,60,2.0,5.0,46,-99.99,,,-99.99,,2013-04-18 23:03:00,
2013-04-18 17:11:00,27.0,9.0,-100.00,ENE,60,2.0,5.0,46,-99.99,,,-99.99,,2013-04-18 23:11:00,
2013-04-18 17:21:00,28.0,9.0,-100.00,ENE,67,2.0,4.0,45,-99.99,,,-99.99,,2013-04-18 23:21:00,
2013-04-18 17:32:00,27.0,10.0,-100.00,NNE,24,1.0,4.0,48,-99.99,,,-99.99,,2013-04-18 23:32:00,
2013-04-18 17:42:00,27.0,10.0,-100.00,NNE,24,1.0,4.0,48,-99.99,,,-99.99,,2013-04-18 23:42:00,
2013-04-18 17:52:00,26.0,12.0,-100.00,East,99,1.0,4.0,54,-99.99,,,-99.99,,2013-04-18 23:52:00,
2013-04-18 18:01:00,25.0,10.0,-100.00,NE,47,2.0,5.0,52,-99.99,,,-99.99,,2013-04-19 00:01:00,
2013-04-18 18:12:00,25.0,10.0,-100.00,NE,47,2.0,5.0,52,-99.99,,,-99.99,,2013-04-19 00:12:00,
2013-04-18 18:21:00,25.0,11.0,-100.00,ENE,63,2.0,4.0,54,-99.99,,,-99.99,,2013-04-19 00:21:00,
2013-04-18 18:32:00,25.0,11.0,-100.00,ENE,63,2.0,4.0,54,-99.99,,,-99.99,,2013-04-19 00:32:00,
2013-04-18 18:42:00,25.0,11.0,-100.00,ENE,63,2.0,4.0,54,-99.99,,,-99.99,,2013-04-19 00:42:00,
2013-04-18 19:01:00,24.0,9.0,-100.00,NNE,17,1.0,3.0,52,-99.99,,,-99.99,,2013-04-19 01:01:00,
2013-04-18 19:11:00,24.0,9.0,-100.00,NNE,17,1.0,3.0,52,-99.99,,,-99.99,,2013-04-19 01:11:00,
2013-04-18 19:21:00,24.0,9.0,-100.00,North,353,2.0,6.0,52,-99.99,,,-99.99,,2013-04-19 01:21:00,
2013-04-18 19:31:00,24.0,9.0,-100.00,NE,52,1.0,2.0,52,-99.99,,,-99.99,,2013-04-19 01:31:00,
2013-04-18 19:42:00,24.0,9.0,-100.00,NE,52,1.0,2.0,52,-99.99,,,-99.99,,2013-04-19 01:42:00,
2013-04-18 19:52:00,23.0,8.0,-100.00,NNE,23,3.0,5.0,53,-99.99,,,-99.99,,2013-04-19 01:52:00,
2013-04-18 20:01:00,23.0,8.0,-100.00,North,2,2.0,4.0,53,-99.99,,,-99.99,,2013-04-19 02:01:00,
2013-04-18 20:11:00,23.0,8.0,-100.00,North,2,2.0,4.0,53,-99.99,,,-99.99,,2013-04-19 02:11:00,
2013-04-18 20:21:00,22.0,8.0,-100.00,NNE,16,2.0,4.0,55,-99.99,,,-99.99,,2013-04-19 02:21:00,
2013-04-18 20:32:00,22.0,9.0,-100.00,NNE,15,2.0,4.0,57,-99.99,,,-99.99,,2013-04-19 02:32:00,
2013-04-18 20:42:00,22.0,9.0,-100.00,NNE,15,2.0,4.0,57,-99.99,,,-99.99,,2013-04-19 02:42:00,
2013-04-18 20:51:00,22.0,9.0,-100.00,NE,38,1.0,2.0,57,-99.99,,,-99.99,,2013-04-19 02:51:00,
2013-04-18 21:01:00,22.0,9.0,-100.00,NNE,29,1.0,4.0,57,-99.99,,,-99.99,,2013-04-19 03:01:00,
2013-04-18 21:11:00,22.0,9.0,-100.00,NNE,29,1.0,4.0,57,-99.99,,,-99.99,,2013-04-19 03:11:00,
2013-04-18 21:21:00,22.0,11.0,-100.00,SSW,207,0.0,2.0,62,-99.99,,,-99.99,,2013-04-19 03:21:00,
2013-04-18 21:32:00,22.0,10.0,-100.00,NNE,18,1.0,7.0,59,-99.99,,,-99.99,,2013-04-19 03:32:00,
2013-04-18 21:43:00,22.0,10.0,-100.00,NNE,18,1.0,7.0,59,-99.99,,,-99.99,,2013-04-19 03:43:00,
2013-04-18 21:53:00,22.0,10.0,-100.00,NE,45,1.0,3.0,58,-99.99,,,-99.99,,2013-04-19 03:53:00,
2013-04-18 22:03:00,22.0,10.0,-100.00,East,100,1.0,5.0,59,-99.99,,,-99.99,,2013-04-19 04:03:00,
2013-04-18 22:13:00,22.0,10.0,-100.00,East,100,1.0,5.0,59,-99.99,,,-99.99,,2013-04-19 04:13:00,
2013-04-18 22:23:00,21.0,11.0,-100.00,SSW,213,1.0,2.0,64,-99.99,,,-99.99,,2013-04-19 04:23:00,
2013-04-18 22:32:00,21.0,11.0,-100.00,SSW,197,1.0,2.0,65,-99.99,,,-99.99,,2013-04-19 04:32:00,
2013-04-18 22:43:00,21.0,11.0,-100.00,SSW,197,1.0,2.0,65,-99.99,,,-99.99,,2013-04-19 04:43:00,
2013-04-18 22:52:00,20.0,9.0,-100.00,North,356,1.0,2.0,63,-99.99,,,-99.99,,2013-04-19 04:52:00,
2013-04-18 23:03:00,21.0,11.0,-100.00,South,175,1.0,2.0,64,-99.99,,,-99.99,,2013-04-19 05:03:00,
2013-04-18 23:11:00,21.0,11.0,-100.00,South,175,1.0,2.0,64,-99.99,,,-99.99,,2013-04-19 05:11:00,
2013-04-18 23:22:00,20.0,10.0,-100.00,South,171,1.0,2.0,65,-99.99,,,-99.99,,2013-04-19 05:22:00,
2013-04-18 23:32:00,20.0,10.0,-100.00,SSW,203,1.0,2.0,65,-99.99,,,-99.99,,2013-04-19 05:32:00,
2013-04-18 23:42:00,20.0,10.0,-100.00,SSW,203,1.0,2.0,65,-99.99,,,-99.99,,2013-04-19 05:42:00,
2013-04-18 23:52:00,20.0,10.0,-100.00,South,183,1.0,1.0,65,-99.99,,,-99.99,,2013-04-19 05:52:00,